DELTA 1 DEB, 21368

Orbit data source: Space-Track

DELTA 1 DEB, 21368 is space debris in SSO originally from a launch on Thu, 12 Jun 1975 UTC launched from the Air Force Western Test Range (AFWTR). Debris objects in space refer to the collection of defunct objects orbiting the Earth. Examples of debris include non-operational satellites, rocket bodies, and fragments generated from explosions, collisions, or faulty payload assembly.

Loading next visibility...
Identifier
21368, 1975-052CN
Orbit
SSO
Country
Flag of USUS
Related business
Manufacturer
Unknown
Mission
Spacecraft
Bus & Motor
Unknown
Mass
Unknown
Launch date (UTC)
1975-06-12 (51 years ago)
Launch vehicle
Unknown
Launch site
Air Force Western Test Range (AFWTR)
Object type
Payload
Rocket body
Debris
Shape & HBR
Unknown shape, 0.1 m
Radar Cross Section
Medium (>0.1 m² and <1 m²)

Expand to show TLE details & history
Last TLE update: 11 hours ago

TLE from 11 hours ago
0 DELTA 1 DEB
1 21368U 75052CN  26168.95376102 -.00000009  00000-0  46128-4 0  9990
2 21368  99.5372 335.0988 0075328 227.1492 297.0398 13.59337382739602
Epoch: 2026-06-17T22:53Z
TLE epoch observation values (Epoch: 2026-06-17T22:53:24.952Z)
Latitude
16.33159°
Longitude
-91.65201°
Altitude
1,015.194 km
Speed
7.358 km/s
True Right ascension
10h 31m 37s
True Declination
16° 14' 32"
Sunlit
Object was in daylight at epoch
Visualization orbit readout
Latitude
Unknown
Longitude
Unknown
Altitude
Unknown
Speed
Unknown
Apparent Right ascension
Unknown
Apparent Declination
Unknown
Sunlit
N/A
Visualization observer readout
Local Sidereal Time
20:20:24
Azimuth
Unknown
Elevation
Unknown
Doppler factor
Unknown
Orbital elements
Apogee altitude
1,091.226 km
Perigee altitude
979.537 km
Semi-major axis
7,413.519 km
Eccentricity
0.00753
Inclination
99.5372°
RAAN
335.0988°
Arg. of periapsis
227.1492°
True anomaly
296.26768°
Mean anomaly
297.0398°
Eccentric anomaly
296.65407°
Mean motion
3.40022 °/min
Orbital period
105.88 mins
BSTAR
0.000046128
Loading maneuver chart data...
Computing Atmospheric mass density...

Documentation

Showing up to 5 results
|